Regional Weather Roundup
Issued by NWS

Home | Current Version | Previous Version | Graphics & Text | Print | Product List | Glossary On
Versions: 1 2 3 4 5 6 7 8 9 10 11 12 13 14 15 16 17 18 19 20 21 22 23 24 25 26 27 28 29 30 31 32 33 34 35 36 37 38 39 40 41 42 43 44 45 46 47 48 49 50
000
ASUS43 KIND 021409
RWRIN

WEATHER ROUNDUP FOR INDIANA
NATIONAL WEATHER SERVICE INDIANAPOLIS IN
1000 AM EDT THU JUL 02 2015

NOTE: "FAIR" INDICATES FEW OR NO CLOUDS BELOW 12,000 FEET WITH NO
SIGNIFICANT WEATHER AND/OR OBSTRUCTIONS TO VISIBILITY.

* - STATION DOES NOT REPORT WEATHER SUCH AS PRECIPITATION OR FOG.

+ - STATION NOT QUALITY CONTROLLED BY THE NATIONAL WEATHER SERVICE.
    USE DATA WITH CAUTION...ESPECIALLY DEWPOINT AND RELATIVE
    HUMIDITY OBSERVATIONS.

INZ001>003-010>013-019-020-021500-
NORTHWEST INDIANA

CITY           SKY/WX    TMP DP  RH WIND       PRES   REMARKS
GARY /AIRPORT/ PTSUNNY   64  57  77 NE14      29.99S
RENSSELAER +   MOSUNNY   63  59  88 NE12      29.96S
VALPARAISO     SUNNY     65  56  72 NE10      29.99R

$$

LMZ046-743>745-021500-
SOUTHERN LAKE MICHIGAN

STATION/POSITION TIME  TEMP    WIND        PRES    WAVE
                       AIR SEA DIR/SP/G            HT
                 (UTC) (F)     (DEG/KT/KT) (MB)    (FT)
BURNS HARBOR     1400   61      40/ 10/ 11 1016.3S
MICHIGAN CITY    1400   59      20/  9/ 10   N/A
5NW MICH CITY    1400   60 64   60/ 10/ 12   N/A     3

$$

INZ004-005-014>016-021>024-021500-
NORTH CENTRAL INDIANA

CITY           SKY/WX    TMP DP  RH WIND       PRES   REMARKS
ELKHART        SUNNY     64  55  72 E5        30.00R
GOSHEN         SUNNY     64  57  78 E12       29.98S
PERU/GRISSOM   CLOUDY    62  57  85 NE7       29.94R
SOUTH BEND     SUNNY     66  56  70 NE8       30.00S

$$

INZ006>009-017-018-025>027-021500-
NORTHEAST INDIANA

CITY           SKY/WX    TMP DP  RH WIND       PRES   REMARKS
ANGOLA *+        N/A     64  54  68 E8        29.98F
FORT WAYNE     CLOUDY    65  60  84 NE12      29.97R

$$

INZ028-029-035-036-043>045-051>053-021500-
WEST CENTRAL INDIANA

CITY           SKY/WX    TMP DP  RH WIND       PRES   REMARKS
CRAWFORDSVL +  CLOUDY    61  54  79 NE6       29.92F
GREENCASTLE +  CLOUDY    64  54  68 NE9       29.91F
LAFAYETTE      CLOUDY    60  55  83 N8        29.94S
TERRE HAUTE    PTSUNNY   65  58  78 NE5       29.91F

$$

INZ030>032-037>040-046>048-054>057-064-065-021500-
CENTRAL INDIANA

CITY           SKY/WX    TMP DP  RH WIND       PRES   REMARKS
ANDERSON       PTSUNNY   64  55  72 CALM      29.95R
GREENWOOD *+   PTSUNNY   64  55  72 NE3       29.91F
INDIANAPOLIS   CLOUDY    66  56  70 NE12      29.89F
-EAGLE CREEK   CLOUDY    64  56  75 NE7       29.91F
KOKOMO *+      CLOUDY    63  55  77 NE7       29.94S
MT COMFORT *+  CLOUDY    64 N/A N/A NE8       29.92F
SHELBYVILLE    CLOUDY    68  60  75 NE6       29.91R

$$

INZ033-034-041-042-049-050-058-059-021500-
EAST CENTRAL INDIANA

CITY           SKY/WX    TMP DP  RH WIND       PRES   REMARKS
MUNCIE         CLOUDY    66  59  78 E5        29.94R

$$

INZ060-061-067>069-081>083-085>088-021500-
SOUTHWEST INDIANA

CITY           SKY/WX    TMP DP  RH WIND       PRES   REMARKS
EVANSVILLE     CLOUDY    72  69  90 CALM      29.88R

$$

INZ062-063-066-070>080-084-089>092-021500-
SOUTH CENTRAL AND SOUTHEAST INDIANA

CITY           SKY/WX    TMP DP  RH WIND       PRES   REMARKS
BLOOMINGTON    PTSUNNY   68  63  84 NE7       29.89S
MADISON *+     CLOUDY    70  68  94 CALM      29.92R
NORTH VERNON + CLOUDY    72  72 100 NE3       29.90R
SEYMOUR +      CLOUDY    70  70 100 NW3       29.90R FOG

$$




USA.gov is the U.S. government's official web portal to all federal, state and local government web resources and services.